Regional Weather Roundup
Issued by NWS Portland, ME

Home | Current Version | Previous Version | Text Only | Print | Product List | Glossary On
Versions: 1 2 3 4 5 6 7 8 9 10 11 12 13 14 15 16 17 18 19 20 21 22 23 24 25 26 27 28 29 30 31 32 33 34 35 36 37 38 39 40 41 42 43 44 45 46 47 48 49 50
000
ASUS41 KGYX 281810
RWRGYX
WEATHER ROUNDUP FOR MAINE AND NEW HAMPSHIRE
NATIONAL WEATHER SERVICE GRAY ME
100 PM EST SUN DEC 28 2014

MEZ002-005-006-010-012-015-018-020-021-024-026-027-029-281900-
MAINE

CITY           SKY/WX    TMP DP  RH WIND       PRES   REMARKS
PORTLAND       CLOUDY    50  44  80 W7        29.68S
6HR MIN TEMP:  43; 6HR MAX TEMP:  50; 6HR PCP:  0.20;

SANFORD        CLOUDY    46  41  81 SW13      29.70S
BAR HARBOR     CLOUDY    45  45 100 W7        29.64R
WISCASSET      CLOUDY    46  44  93 VRB5      29.68R
6HR MIN TEMP:  42; 6HR MAX TEMP:  46; 6HR PCP:  0.24;

ROCKLAND       CLOUDY    45  43  93 W15       29.64S
FRYEBURG       CLOUDY    48  37  65 NW9       29.68R
6HR MIN TEMP:  43; 6HR MAX TEMP:  49; 6HR PCP:  0.03;

LEWISTONAUBURN CLOUDY    46  41  81 NW7       29.67R
AUGUSTA        CLOUDY    43  41  93 W7        29.66S
6HR MIN TEMP:  38; 6HR MAX TEMP:  43; 6HR PCP:  0.11;

WATERVILLE     CLOUDY    43  39  87 SW8       29.62S
BANGOR         CLOUDY    44  41  89 W6        29.62S
6HR MIN TEMP:  40; 6HR MAX TEMP:  45; 6HR PCP:  0.10;

GREENVILLE       N/A     38  28  67 VRB3      29.57R
6HR MIN TEMP:  32; 6HR MAX TEMP:  39;

MILLINOCKET    CLOUDY    42  34  73 W9G22     29.59S
6HR MIN TEMP:  36; 6HR MAX TEMP:  43; 6HR PCP:  0.02;

HOULTON        PTSUNNY   39  37  92 SW9       29.54R
6HR MIN TEMP:  37; 6HR MAX TEMP:  39; 6HR PCP:  0.05;

PRESQUE ISLE   CLOUDY    45  34  65 W13       29.52R
6HR MIN TEMP:  36; 6HR MAX TEMP:  45;

FRENCHVILLE    CLOUDY    36  34  92 N6        29.48R
6HR MIN TEMP:   1; 6HR MAX TEMP:  36; 6HR PCP:  0.01;

CARIBOU        CLOUDY    42  34  73 W12G20    29.49R
6HR MIN TEMP:  34; 6HR MAX TEMP:  42; 6HR PCP:  0.02;

$$

NHZ002-005-008-009-011-012-014-281900-
NEW HAMPSHIRE

CITY           SKY/WX    TMP DP  RH WIND       PRES   REMARKS
PORTSMOUTH     CLOUDY    48  43  83 SW8       29.71S
ROCHESTER      CLOUDY    48  42  80 CALM      29.70S
6HR MIN TEMP:  41; 6HR MAX TEMP:  48; 6HR PCP:  0.19;

NASHUA         PTSUNNY   51  40  66 W13G18    29.76R
MANCHESTER     CLOUDY    50  41  71 W10G17    29.74R
6HR MIN TEMP:  42; 6HR MAX TEMP:  50; 6HR PCP:  0.05;

CONCORD        CLOUDY    49  38  65 W13       29.74R
6HR MIN TEMP:  41; 6HR MAX TEMP:  49; 6HR PCP:  0.15;

BERLIN         CLOUDY    40  31  70 NW10G20   29.69R
6HR MIN TEMP:  40; 6HR MAX TEMP:  44; 6HR PCP:  0.02;

WHITEFIELD     PTSUNNY   40  33  76 W8G16     29.72R
6HR MIN TEMP:  40; 6HR MAX TEMP:  43; 6HR PCP:  0.13;

JAFFREY        CLOUDY    45  37  73 W9G21     29.76R
6HR MIN TEMP:  39; 6HR MAX TEMP:  45; 6HR PCP:  0.16;

KEENE          CLOUDY    46  37  71 W9        29.79R
LEBANON        CLOUDY    44  38  79 VRB6      29.76R
6HR MIN TEMP:  36; 6HR MAX TEMP:  45; 6HR PCP:  0.04;

MT WASHINGTON  NOT AVBL
$$

VTZ005-007-008-281900-
VERMONT

CITY           SKY/WX    TMP DP  RH WIND       PRES   REMARKS
ST JOHNSBURY     N/A     42  33  70 MISG      29.73R
MONTPELIER     PTSUNNY   39  33  79 NW6       29.79R
BURLINGTON     PTSUNNY   45  27  49 W12       29.81R
$$

MAZ007-012-024-CTZ003-RIZ002-NYZ038-NYZ072-281900-
SOUTHERN NEW ENGLAND AND NY

CITY           SKY/WX    TMP DP  RH WIND       PRES   REMARKS
BOSTON         CLOUDY    50  42  74 W12       29.77S
WORCESTER      CLOUDY    45  41  86 W22G33    29.78R
NANTUCKET      CLOUDY    50  45  83 W15       29.80F
PROVIDENCE     CLOUDY    50  42  74 W12       29.81R
HARTFORD       CLOUDY    50  41  71 NW15      29.84R
ALBANY         CLOUDY    44  33  65 W18G25    29.88R
NEW YORK CITY  CLOUDY    51  41  68 W10       29.89S
$$

ANZ081-ANZ082-ANZ150-NHZ014-MEZ023>029-281900-
COASTAL MARINE OBSERVATIONS

STATION/POSITION TIME  TEMP    WIND        PRES    WAVE
                       AIR SEA DIR/SP/G            HT/PER
                 (UTC) (F)     (DEG/KT/KT) (MB)    (FT/S)
MOUNT DESERT ROC 1800   47                 1003.1R
MATINICUS ROCK   1700          240/ 24/ 27 1003.9F
PORTLAND WX BUOY 1750   45 43  220/ 16/ 17 1004.5F   3/ 5
WELLS            1700   46 41  280/  4/  6 1004.9F
ISLE OF SHOALS   1700   45     240/ 18/ 19 1005.6F
JEFFREYS LEDGE   1721      48                N/A     3/ 5
CASHES LEDGE BUO 1750   47 48  240/ 21/ 25 1004.4F   7/ 6
$$

.............KEY..............
   WCI - WIND CHILL
   TC  - TEMPERATURE IN CELSIUS
   VSB - VISIBILITY IN MILES
   HX  - HEAT INDEX
   FAIR- INDICATES FEW OR NO CLOUDS BELOW 12,000 FT, WITH NO
         SIGNIFICANT WEATHER AND/OR OBSTRUCTIONS TO VISIBILITY.




USA.gov is the U.S. government's official web portal to all federal, state and local government web resources and services.